Back to catalog

STARLINK-30536

AliveCommunicationsVLEO
NORAD 57993·PAYLOAD·🇺🇸 United States

Launched Oct 5, 2023 from Cape Canaveral Space Force Station

Loading…

Next Passes (next 24 hours)

TLE

FreshSource: CelesTrak SupGP

Epoch: Sep 14, 2026, 13:38 UTC

1 57993C 23153C   26257.56854167  .00000403  00000+0  14589-4 0  2575
2 57993  43.0033  80.3395 0001846 259.3568  89.3654 15.27578061    11

Track STARLINK-30536 in real time with AllMySat

Download on the App Store